Flag for Germany Weather past 2 weeks in Würzburg, Bavaria, Germany

Now
72 °F

Passing clouds.


Feels Like: 77 °F
Forecast: 55 / 80 °F
Wind: 5 mph from East

Location: Wuerzburg

Current Time: Jul 24, 2014 at 11:14:09 AM

Latest Report: Jul 24, 2014 at 10:00 AM


Visibility: 25 mi

Pressure: 29.90 "Hg

Humidity: 55%

Dew point: 55 °F

Location of WürzburgLocation

Historic Weather in Würzburg — Graph

°F

Würzburg temperature yesterday

Maximum temperature yesterday: 83 °F (at 3:00 PM)
Minimum temperature yesterday: 64 °F (at 6:00 AM)
Average temperature yesterday: 75 °F

Past Weeks' High & Low Weather Summary

 TemperatureHumidityPressure
High90 °F (Jul 19, 5:00 PM)99% (Jul 11, 5:00 AM)30.18 "Hg (Jul 11, 5:00 AM)
Low53 °F (Jul 10, 2:00 AM)28% (Jul 19, 4:00 PM)29.71 "Hg (Jul 9, 4:00 PM)
Average69 °F71%29.92 "Hg
* Reported Jul 9 3:00 PM — Jul 24 10:00 AM, Würzburg, Weather by CustomWeather, © 2014

Note: Actual official high and low records may vary slightly from our data, if they occured in-between our weather recording intervals... More about our weather records

Advertising

Würzburg weather history for previous 24 hours

 ConditionsComfort  
Time TempWeatherWind HumidityBarometerVisibility
10:00 AM
Jul 24
72 °FPassing clouds.5 mph55%29.90 "Hg25 mi
9:00 AM69 °FPassing clouds.3 mph63%29.92 "Hg25 mi
8:00 AM65 °FPassing clouds.2 mph65%29.92 "Hg22 mi
7:00 AM63 °FPassing clouds.2 mph71%29.92 "Hg19 mi
6:00 AM61 °FPassing clouds.1 mph73%29.92 "Hg22 mi
5:00 AM61 °FPassing clouds.1 mph72%29.91 "Hg22 mi
4:00 AM62 °FClear.2 mph69%29.92 "Hg16 mi
3:00 AM64 °FClear.2 mph65%29.92 "Hg22 mi
2:00 AM65 °FPassing clouds.3 mph64%29.94 "Hg22 mi
1:00 AM67 °FPassing clouds.3 mph62%29.94 "Hg22 mi
12:00 AM69 °FClear.5 mph57%29.94 "Hg16 mi
11:00 PM
Jul 23
71 °FPassing clouds.3 mph54%29.94 "Hg19 mi
10:00 PM74 °FPassing clouds.5 mph47%29.93 "Hg17 mi
9:00 PM78 °FPartly sunny.3 mph41%29.91 "Hg19 mi
8:00 PM80 °FPartly sunny.6 mph37%29.90 "Hg25 mi
7:00 PM81 °FScattered clouds.6 mph35%29.90 "Hg25 mi
6:00 PM82 °FPartly sunny.8 mph38%29.90 "Hg25 mi
5:00 PM82 °FPartly sunny.7 mph36%29.92 "Hg25 mi
4:00 PM83 °FPartly sunny.5 mph34%29.92 "Hg28 mi
3:00 PM83 °FPartly sunny.6 mph34%29.94 "Hg28 mi
Weather by CustomWeather, © 2014

See weather overviewHow to use our weather pages